Location: Unspecified
(0.0000°N, 0.0000°E)
Time: 12:10:30
(UTC+00:00)

COSMOS-2414 - Pass Details

Date: 29 April 2024
Orbit: 908 x 965 km, 83.0° (Epoch: 25 May)

Event Time Altitude Azimuth Distance (km) Brightness Sun altitude
Exits shadow 03:00:30 21° 52° (NE) 1,900 7.9 -42.4°
Drops below altitude 10° 03:02:54 10° 34° (NNE) 2,583 8.7 -41.9°
Sets 03:05:38 0° 23° (NNE) 3,520 9.4 -41.2°
